Location: Berkeley
(37.8716°N, 122.2727°W)
Time: 06:29:07
(UTC-07:00)

ISS - Pass Details

Date: 17 May 2026
Orbit: 413 x 423 km, 51.6° (Epoch: 6 June)

Event Time Altitude Azimuth Distance (km) Brightness Sun altitude
Rises 23:28:13 0° 318° (NW) 2,353 1.2 -28.2°
Reaches altitude 10° 23:30:38 10° 335° (NNW) 1,491 0.0 -28.4°
Enters shadow 23:31:58 17° 355° (N) 1,132 -0.9 -28.5°
